EHI
0 0 0 0 0 0 0 0 0 0 0 0 1 3 8 14 17 20 25 27 27 25 19 15 14 13 11 9 8 7 6 4 2 1 0 0 0 0 0 0 1 3 4 4
0 0 0 0 0 0 0 0 0 0 0 0 1 5 10 17 20 23 26 27 26 22 17 15 14 13 11 8 6 6 5 3 1 1 0 0 0 0 0 1 3 4 4 5
0 0 0 0 0 0 0 0 0 0 1 1 3 8 13 18 21 23 26 26 22 18 14 13 13 13 11 7 5 4 3 1 0 0 0 0 0 0 0 2 4 5 4 4
0 0 0 0 0 0 0 0 0 1 2 3 6 10 12 14 16 18 21 23 20 16 13 12 12 12 9 5 4 3 1 0 0 0 0 0 0 0 1 2 4 4 3 2
0 0 0 0 0 0 0 0 1 2 3 6 9 10 9 10 12 13 17 21 20 16 14 12 12 11 8 5 4 2 1 0 0 0 0 0 0 0 1 2 3 2 1 0
0 0 0 0 0 0 0 0 0 1 3 6 9 9 8 10 13 14 16 19 18 15 12 12 10 8 7 6 4 2 0 0 0 0 0 0 0 0 1 1 1 1 0 0
0 0 0 0 0 0 0 0 0 0 1 4 7 8 10 13 15 14 13 14 14 11 9 8 6 6 5 4 2 1 0 0 0 0 0 0 0 0 0 0 0 0 0 0
0 0 0 0 0 0 0 0 0 0 1 4 7 10 11 13 13 12 11 10 8 6 4 3 3 3 2 1 1 0 0 0 0 0 0 0 0 0 0 0 0 0 0 0
0 0 0 0 0 0 0 0 0 1 2 6 9 11 11 11 10 10 10 9 7 4 2 1 1 1 1 0 0 0 0 0 0 0 0 0 0 0 0 0 0 0 0 0
0 0 0 0 0 0 1 1 1 3 5 7 9 9 8 8 8 9 10 9 7 3 1 0 0 0 0 0 0 0 0 0 0 0 0 0 0 0 0 0 0 0 0 0
0 0 0 0 0 1 2 2 2 3 5 6 7 6 5 4 5 6 7 7 5 3 1 0 0 0 0 0 0 0 0 0 0 0 0 0 0 0 0 0 0 0 0 0
0 0 0 0 0 1 2 3 3 4 4 4 3 3 2 2 2 2 2 3 3 2 1 0 0 0 0 0 0 0 0 0 0 0 0 0 0 0 0 0 0 0 0 0
0 0 0 0 0 0 1 2 3 4 3 2 2 1 2 1 1 0 1 1 1 2 1 0 0 0 0 0 0 0 0 0 0 0 0 0 0 0 0 0 0 0 0 0
0 0 0 0 1 0 0 0 1 1 1 1 1 1 1 0 0 0 1 1 1 0 0 0 0 0 0 0 0 0 0 0 0 0 0 0 0 0 0 0 0 0 0 0
0 0 0 0 0 0 0 0 0 0 0 0 0 0 0 0 0 0 1 1 0 0 0 0 0 0 0 0 0 0 0 0 0 0 0 0 0 0 0 0 0 0 0 0
0 0 0 0 0 0 0 0 0 0 0 0 0 0 0 0 0 0 0 0 0 0 0 0 0 0 0 0 0 0 0 0 0 0 0 0 0 0 0 0 0 0 0 0
0 0 0 0 0 0 0 0 0 0 0 0 0 0 0 0 0 0 0 0 0 0 0 0 0 0 0 0 0 0 0 0 0 0 0 0 0 0 0 0 0 0 0 0
0 0 0 0 0 0 0 0 0 0 0 0 0 0 0 0 0 0 0 0 0 0 0 0 0 0 0 0 0 0 0 0 0 0 0 0 0 0 0 0 0 0 0 0
0 0 0 0 0 0 0 0 0 0 0 0 0 0 0 0 0 0 0 0 0 0 0 0 0 0 0 0 0 0 0 0 0 0 0 0 0 0 0 0 0 0 0 0
0 0 0 0 0 0 0 0 0 0 0 0 0 0 0 0 0 0 0 0 0 0 0 0 0 0 0 0 0 0 0 0 0 0 0 0 0 0 0 0 0 0 0 0
0 0 0 0 0 0 0 0 0 0 0 0 0 0 0 0 0 0 0 0 0 0 0 0 0 0 0 0 0 0 0 0 0 0 0 0 0 0 0 0 0 0 0 0
0 0 0 0 0 0 0 0 0 0 0 0 0 0 0 0 0 0 0 0 0 0 0 0 0 0 0 0 0 0 0 0 0 0 0 0 0 0 0 0 0 0 0 0
0 0 0 0 0 0 0 0 0 0 0 0 0 0 0 0 0 0 0 0 0 0 0 0 0 0 0 0 0 0 0 0 0 0 0 0 0 0 0 0 0 0 0 0
0 0 0 0 0 0 0 0 0 0 0 0 0 0 0 0 0 0 0 0 0 0 0 0 0 0 0 0 0 0 0 0 0 0 0 0 0 0 0 0 0 0 0 0
0 0 0 0 0 0 0 0 0 0 0 0 0 0 0 0 0 0 0 0 0 0 0 0 0 0 0 0 0 0 0 0 0 0 0 0 0 0 0 0 0 0 0 0
0 0 0 0 0 0 0 0 0 0 0 0 0 0 0 0 0 0 0 0 0 0 0 0 0 0 0 0 0 0 0 0 0 0 0 0 0 0 0 0 0 0 0 0
0 0 0 0 0 0 0 0 0 0 0 0 0 0 0 0 0 0 0 0 0 0 0 0 0 0 0 0 0 0 0 0 0 0 0 0 0 0 0 0 0 0 0 0
Wind_Speed
5 4 4 4 6 8 7 9 10 10 9 11 9 7 6 6 7 7 7 7 7 6 6 5 5 4 4 4 4 4 4 3 2 2 2 2 2 2 2 2 2 2 2 1
1 2 4 2 4 7 5 5 5 4 8 7 2 4 5 7 8 8 8 8 7 7 6 5 5 5 4 4 4 4 4 3 2 2 2 2 2 2 2 2 1 2 1 1
2 1 4 2 4 5 4 4 7 8 8 3 4 7 9 9 9 9 9 8 8 7 6 5 4 5 4 4 4 4 4 3 3 3 2 2 2 2 2 2 2 2 2 2
2 3 4 7 2 3 4 2 3 4 3 5 6 4 3 4 8 8 8 8 8 7 6 4 4 4 4 5 4 4 4 3 3 3 2 2 2 2 2 2 2 2 2 2
4 3 2 3 0 2 3 2 2 3 2 3 6 5 2 1 4 5 5 6 6 6 6 6 6 5 6 6 5 4 3 3 3 3 3 2 2 2 2 3 3 3 3 3
4 4 5 6 2 1 3 2 2 4 5 6 6 4 3 3 6 6 7 6 7 7 7 7 5 6 7 6 5 4 3 3 4 4 4 3 2 2 3 3 3 3 4 4
4 3 6 4 5 0 4 7 3 4 6 7 4 4 5 7 8 8 8 8 8 8 7 6 5 6 6 6 5 4 4 4 5 5 4 4 3 3 4 4 4 4 4 4
4 4 6 3 2 3 5 2 2 3 4 5 6 7 9 9 9 10 9 8 8 8 7 5 5 6 6 5 5 5 6 6 6 5 4 4 5 4 4 4 5 4 4 5
5 6 4 2 3 4 2 2 2 3 4 8 9 8 9 9 8 8 8 8 7 8 8 6 5 5 6 4 4 6 7 6 5 6 5 5 5 5 4 4 4 3 4 4
1 3 3 3 3 3 1 1 2 5 7 8 9 9 10 8 8 8 7 7 7 8 8 6 5 5 5 4 5 6 7 5 5 6 6 6 5 4 4 4 4 4 4 4
2 3 3 3 4 3 3 4 6 6 6 7 9 9 8 8 8 7 6 6 6 7 7 7 6 6 5 4 6 7 7 6 6 6 6 6 7 6 5 5 4 4 3 4
5 5 3 2 2 1 3 5 6 7 6 6 7 8 8 7 7 7 7 6 7 7 7 7 7 6 5 4 5 7 6 6 5 5 5 5 7 8 15 12 14 13 9 7
4 2 3 1 1 2 4 6 6 6 7 7 7 8 9 8 7 7 7 7 7 7 7 7 7 6 5 5 5 6 7 6 5 5 5 5 5 6 7 10 15 15 13 12
3 2 1 1 1 3 5 8 8 8 7 7 7 8 9 8 8 8 7 7 7 8 7 7 7 6 4 5 6 7 7 7 6 5 5 5 5 6 6 7 6 6 9 12
2 3 3 3 3 4 5 7 9 8 8 8 7 8 9 9 9 8 7 8 8 8 7 7 7 6 4 6 7 7 6 5 5 5 6 6 6 6 6 7 6 5 5 6
1 2 3 4 4 4 5 6 7 7 7 8 8 8 8 9 9 8 8 7 8 8 6 6 6 5 5 6 7 6 6 10 8 6 6 6 6 6 6 6 6 5 5 4
5 4 4 5 5 5 4 5 6 7 7 8 9 9 10 10 10 9 7 7 8 7 6 6 6 5 5 6 6 6 6 7 10 7 6 6 6 6 6 5 5 5 4 3
4 5 5 6 6 6 5 6 7 7 7 8 10 10 10 10 10 9 8 8 9 8 6 5 6 6 6 6 6 6 6 6 5 6 6 5 5 5 5 5 5 5 4 4
3 4 4 5 5 6 7 7 7 7 8 9 10 10 9 8 9 9 8 8 8 7 4 5 8 7 7 7 8 6 7 7 6 6 5 7 6 5 5 4 4 4 4 3
4 5 5 5 5 6 7 8 8 8 8 9 10 10 10 9 9 9 8 7 4 4 5 6 7 6 6 7 8 6 7 7 7 6 5 5 5 4 4 4 4 3 3 3
6 6 7 7 7 6 7 9 9 9 9 9 10 10 10 9 8 8 8 6 3 4 6 7 5 5 5 6 7 6 6 5 5 5 5 5 4 4 4 4 3 3 3 3
6 7 7 7 8 7 6 7 8 10 10 9 10 10 10 9 8 7 5 4 4 6 5 4 4 6 7 7 5 5 5 5 4 4 4 4 4 4 3 3 3 3 3 2
6 7 7 8 9 8 8 8 8 9 10 10 10 10 9 7 6 6 5 3 4 6 5 4 6 9 9 5 4 5 5 5 4 4 4 4 4 4 4 3 3 3 2 2
7 7 8 8 9 10 9 8 8 7 9 8 8 8 8 7 5 3 4 6 7 7 5 5 8 9 7 4 4 4 4 4 4 4 4 3 3 3 3 3 3 2 2 3
8 8 9 10 9 8 9 9 10 9 9 7 7 7 5 4 5 5 5 6 8 7 5 6 9 8 5 4 4 4 4 4 4 4 4 3 3 3 3 3 3 3 3 3
7 7 6 7 7 7 7 7 7 6 7 7 5 5 5 5 6 5 5 6 7 7 5 4 4 5 4 4 4 3 3 4 4 3 3 3 3 3 3 3 4 3 3 3
8 7 7 7 6 6 6 6 7 6 6 6 6 5 5 5 5 5 6 5 5 4 4 3 3 3 3 3 3 3 3 3 3 3 3 3 3 3 3 4 3 3 3 3
Wind_Direction
210 206 175 183 173 165 171 176 178 218 222 243 228 213 194 170 162 153 150 151 154 152 149 147 147 149 153 152 147 145 140 137 147 138 122 108 103 115 118 129 148 143 139 138
215 218 190 203 197 174 184 177 199 211 245 249 206 150 161 170 168 166 164 160 153 147 146 151 158 156 150 147 147 141 139 140 131 118 113 109 105 108 106 105 108 107 113 118
217 263 120 222 218 180 177 188 175 201 231 183 167 180 184 179 175 174 166 157 155 156 156 153 151 150 149 146 136 130 129 125 123 124 123 123 115 105 108 111 106 100 97 99
125 111 185 239 258 167 153 192 208 223 231 191 186 166 153 165 171 171 166 161 157 151 143 131 121 123 124 119 121 122 119 117 116 119 117 105 100 102 105 99 97 94 90 94
117 146 245 289 259 143 150 242 218 197 192 137 116 86 38 163 158 161 155 142 136 134 130 122 120 126 120 115 112 109 109 112 115 118 114 107 107 105 101 97 88 81 75 82
120 138 207 235 278 245 125 274 235 183 173 155 131 143 219 142 119 114 106 107 110 108 104 106 111 119 116 113 111 106 98 100 103 105 106 105 104 97 91 94 93 86 73 66
138 170 250 260 295 293 157 232 219 184 173 161 172 179 138 119 109 107 104 104 107 106 102 101 105 111 112 110 105 97 95 95 91 89 92 89 85 84 90 91 89 85 80 68
141 161 239 310 358 173 219 257 163 162 157 134 116 109 109 110 111 109 106 103 105 103 95 89 95 107 109 107 102 99 97 92 86 81 82 82 84 79 83 91 88 83 83 70
185 206 251 294 271 283 246 195 174 147 136 130 124 121 116 112 109 105 108 107 104 107 98 83 81 99 108 99 99 100 95 90 86 82 76 76 82 81 80 81 89 84 84 78
255 274 294 315 322 332 334 182 141 134 133 134 130 129 124 121 117 114 109 112 113 112 108 94 78 76 90 98 99 101 99 94 92 91 83 72 66 66 76 78 87 92 95 91
261 279 323 344 356 351 41 80 100 103 109 126 128 128 126 125 120 115 110 106 109 111 109 101 91 85 84 93 103 103 99 95 92 89 92 81 69 55 61 53 72 96 94 97
214 226 199 256 319 12 82 87 100 102 93 94 111 117 114 110 107 108 109 107 105 102 103 100 97 90 83 88 102 109 106 101 97 97 96 98 95 76 56 64 65 66 72 86
207 206 195 213 22 57 93 93 91 97 109 108 105 113 113 109 105 107 106 105 108 110 109 104 98 90 81 85 93 100 110 110 106 104 102 100 99 102 92 66 60 60 63 76
181 154 144 116 106 101 104 101 95 90 91 103 109 108 108 107 107 107 106 105 105 104 102 100 97 89 83 92 96 97 100 103 103 100 98 97 95 94 96 98 85 60 50 62
222 189 170 133 109 113 115 111 105 103 102 99 104 111 116 117 115 110 107 108 106 103 101 101 99 91 86 99 104 105 104 104 101 99 96 96 96 94 93 92 90 85 76 61
168 136 133 125 127 127 123 126 126 127 122 117 116 117 117 114 112 107 106 110 111 108 105 102 100 98 100 106 107 103 104 113 111 106 103 102 101 101 99 98 95 92 88 82
153 165 165 166 165 156 151 149 143 137 131 128 128 124 119 115 110 106 102 98 98 98 99 103 102 100 102 107 109 111 111 115 114 108 106 109 109 109 108 107 105 98 87 81
194 186 176 172 168 158 142 132 131 132 133 132 129 126 126 126 124 119 113 107 99 90 85 95 104 104 101 101 101 103 106 106 106 109 108 106 106 107 109 109 109 105 95 85
161 154 152 158 161 152 140 135 134 130 131 131 130 127 124 122 121 120 117 112 110 107 99 101 108 102 103 109 109 103 107 107 104 102 104 108 106 106 111 114 112 110 111 105
138 136 138 134 132 134 133 131 130 127 128 129 125 121 120 121 121 120 113 106 107 121 125 116 109 105 109 113 111 108 111 114 116 113 111 113 115 116 117 119 118 118 117 116
138 133 132 129 125 127 132 132 131 130 128 129 129 129 126 123 121 120 117 109 94 105 112 114 112 113 112 116 113 112 114 118 120 122 124 124 123 124 125 125 125 127 129 130
132 131 130 128 125 121 121 123 126 127 126 125 124 124 123 121 116 105 97 114 125 119 112 110 115 121 123 120 116 119 122 124 125 127 129 132 135 137 137 136 136 138 141 147
123 125 124 125 124 120 113 113 118 123 125 127 128 128 126 122 122 122 117 118 124 121 114 115 127 128 124 117 118 124 129 133 136 140 142 143 145 147 148 150 153 157 160 164
117 116 116 117 119 117 114 111 109 109 110 111 115 120 122 116 98 87 113 125 124 119 113 126 132 131 125 118 122 126 130 133 135 138 140 142 144 148 153 160 168 176 180 182
115 115 117 119 118 116 116 113 106 104 104 104 103 101 102 110 119 120 115 119 120 113 107 119 127 125 121 121 123 127 132 138 142 144 145 148 154 161 169 178 187 193 196 200
113 114 114 113 115 117 118 115 112 113 114 110 100 96 97 97 104 108 108 112 114 114 113 114 119 118 119 124 127 132 135 138 143 147 156 162 171 177 183 191 199 205 210 215
104 105 105 101 98 104 110 114 116 118 121 121 115 111 112 110 108 110 110 109 110 110 109 108 111 116 119 121 124 129 134 141 149 158 169 175 181 189 196 201 208 212 216 223